RANA Weather Reports


Display with metric or nautical units.
time (UTC)temp
F
wind
direction
speed
MPH
gust
MPH
rain 1hr
in
rain 24hr
in
rain mn
in
humidity
%
barometer
mb
20260505023011 61 54 9.0 9.0 0.00 0.00 0.00 54
20260505022509 61 50 9.0 9.0 0.00 0.00 0.00 54
20260505022012 61 45 7.0 9.0 0.00 0.00 0.00 55
20260505021510 61 42 7.0 9.0 0.00 0.00 0.00 56
20260505021011 61 24 7.0 9.0 0.00 0.00 0.00 56
20260505020510 59 13 7.0 9.0 0.00 0.00 0.00 57
20260505020013 59 4 9.0 11.0 0.00 0.00 0.00 58
20260505015510 59 1 11.0 11.0 0.00 0.00 0.00 58
20260505015011 59 4 9.0 11.0 0.00 0.00 0.00 58
20260505014510 59 10 11.0 11.0 0.00 0.00 0.00 58
20260505014010 59 347 9.0 11.0 0.00 0.00 0.00 58
20260505013509 59 341 9.0 9.0 0.00 0.00 0.00 58
20260505013010 59 337 7.0 9.0 0.00 0.00 0.00 58
20260505012511 59 319 4.0 7.0 0.00 0.00 0.00 58
20260505012014 59 338 9.0 9.0 0.00 0.00 0.00 59
20260505011511 59 340 9.0 9.0 0.00 0.00 0.00 59
20260505011010 59 353 9.0 9.0 0.00 0.00 0.00 58
20260505010510 59 8 9.0 11.0 0.00 0.00 0.00 58
20260505010010 59 1 9.0 9.0 0.00 0.00 0.00 59
20260505005511 59 1 9.0 11.0 0.00 0.00 0.00 59
20260505005011 59 39 9.0 11.0 0.00 0.00 0.00 59
20260505004511 59 24 7.0 9.0 0.00 0.00 0.00 58
20260505004010 59 6 7.0 9.0 0.00 0.00 0.00 58
20260505003510 59 22 4.0 7.0 0.00 0.00 0.00 57
20260505003010 59 40 7.0 7.0 0.00 0.00 0.00 57
20260505002510 59 37 4.0 7.0 0.00 0.00 0.00 58
20260505002018 59 52 7.0 9.0 0.00 0.00 0.00 58
20260505001511 59 47 4.0 7.0 0.00 0.00 0.00 59
20260505001011 59 77 9.0 11.0 0.00 0.00 0.00 59
20260505000511 59 80 9.0 9.0 0.00 0.00 0.00 59
20260505000011 59 79 7.0 9.0 0.00 0.00 0.00 59
20260504235510 59 92 9.0 11.0 0.00 0.00 0.00 59
20260504235017 59 100 11.0 11.0 0.00 0.00 0.00 59
20260504234510 59 107 9.0 11.0 0.00 0.00 0.00 59
20260504234009 59 114 11.0 11.0 0.00 0.00 0.00 60
20260504233511 59 116 11.0 11.0 0.00 0.00 0.00 59
20260504233010 59 116 11.0 11.0 0.00 0.00 0.00 58
20260504232510 59 107 9.0 9.0 0.00 0.00 0.00 57
20260504232013 59 110 9.0 11.0 0.00 0.00 0.00 57
20260504231517 59 115 9.0 11.0 0.00 0.00 0.00 57
20260504231010 59 120 9.0 9.0 0.00 0.00 0.00 54
20260504230510 61 121 7.0 9.0 0.00 0.00 0.00 52
20260504230010 61 118 4.0 4.0 0.00 0.00 0.00 51
20260504225510 63 72 9.0 11.0 0.00 0.00 0.00 50
20260504225010 63 54 7.0 9.0 0.00 0.00 0.00 50
20260504224511 63 30 9.0 9.0 0.00 0.00 0.00 51
20260504224010 63 40 7.0 9.0 0.00 0.00 0.00 51
20260504223515 63 51 7.0 7.0 0.00 0.00 0.00 51
20260504223010 63 60 7.0 9.0 0.00 0.00 0.00 52
20260504222509 63 75 4.0 7.0 0.00 0.00 0.00 52
20260504222013 63 84 7.0 7.0 0.00 0.00 0.00 51
20260504221511 63 69 4.0 7.0 0.00 0.00 0.00 51
20260504221010 63 48 4.0 7.0 0.00 0.00 0.00 51
20260504220511 63 49 7.0 7.0 0.00 0.00 0.00 51
20260504220011 63 53 7.0 7.0 0.00 0.00 0.00 51
20260504215510 63 44 7.0 7.0 0.00 0.00 0.00 51
20260504215011 63 57 7.0 7.0 0.00 0.00 0.00 51
20260504214510 63 53 7.0 7.0 0.00 0.00 0.00 51
20260504214010 63 47 7.0 9.0 0.00 0.00 0.00 50
20260504213510 63 32 9.0 9.0 0.00 0.00 0.00 51
20260504213011 63 25 7.0 9.0 0.00 0.00 0.00 51
20260504212511 63 15 7.0 7.0 0.00 0.00 0.00 51
20260504212012 63 18 7.0 7.0 0.00 0.00 0.00 51
20260504211510 63 27 7.0 7.0 0.00 0.00 0.00 51
20260504211010 63 46 7.0 9.0 0.00 0.00 0.00 51
20260504210511 63 47 4.0 4.0 0.00 0.00 0.00 51
20260504210011 63 50 4.0 7.0 0.00 0.00 0.00 51
20260504205510 63 56 7.0 7.0 0.00 0.00 0.00 51
20260504205010 63 66 4.0 4.0 0.00 0.00 0.00 51
20260504204510 63 48 7.0 7.0 0.00 0.00 0.00 50
20260504204010 63 42 9.0 9.0 0.00 0.00 0.00 50
20260504203510 64 29 9.0 9.0 0.00 0.00 0.00 49
20260504203011 64 30 9.0 11.0 0.00 0.00 0.00 49
20260504202510 64 28 9.0 11.0 0.00 0.00 0.00 50
20260504202012 64 21 9.0 11.0 0.00 0.00 0.00 50
20260504201511 64 19 9.0 9.0 0.00 0.00 0.00 50
20260504201010 64 17 9.0 9.0 0.00 0.00 0.00 50
20260504200511 64 26 9.0 11.0 0.00 0.00 0.00 50
20260504200010 63 26 11.0 13.0 0.00 0.00 0.00 50
20260504195511 63 23 11.0 11.0 0.00 0.00 0.00 50
20260504195011 63 24 11.0 13.0 0.00 0.00 0.00 50
20260504194511 63 19 11.0 13.0 0.00 0.00 0.00 50
20260504194011 64 25 11.0 13.0 0.00 0.00 0.00 50
20260504193511 64 32 13.0 13.0 0.00 0.00 0.00 49
20260504193010 64 34 13.0 13.0 0.00 0.00 0.00 49
20260504192510 64 31 13.0 13.0 0.00 0.00 0.00 49
20260504192014 64 27 13.0 13.0 0.00 0.00 0.00 49
20260504191510 64 28 13.0 13.0 0.00 0.00 0.00 48
20260504191010 64 26 11.0 13.0 0.00 0.00 0.00 48
20260504190510 64 25 11.0 11.0 0.00 0.00 0.00 47
20260504190011 64 28 11.0 13.0 0.00 0.00 0.00 46
20260504185510 64 41 9.0 9.0 0.00 0.00 0.00 45
20260504185011 64 33 9.0 11.0 0.00 0.00 0.00 44
20260504184511 66 36 4.0 7.0 0.00 0.00 0.00 43
20260504184010 66 71 7.0 7.0 0.00 0.00 0.00 42
20260504183510 66 80 7.0 9.0 0.00 0.00 0.00 42
20260504183010 66 86 9.0 9.0 0.00 0.00 0.00 42
20260504182510 66 82 9.0 9.0 0.00 0.00 0.00 43
20260504182015 66 67 9.0 11.0 0.00 0.00 0.00 43
20260504181510 66 34 7.0 9.0 0.00 0.00 0.00 44
20260504181011 66 31 7.0 7.0 0.00 0.00 0.00 44
20260504180515 66 26 9.0 9.0 0.00 0.00 0.00 44
20260504180011 66 55 2.0 4.0 0.00 0.00 0.00 42
20260504175510 66 100 9.0 11.0 0.00 0.00 0.00 42
20260504175010 66 101 9.0 11.0 0.00 0.00 0.00 42
20260504174511 66 98 9.0 9.0 0.00 0.00 0.00 42
20260504174010 66 98 9.0 11.0 0.00 0.00 0.00 42
20260504173511 66 97 9.0 11.0 0.00 0.00 0.00 43
20260504173010 66 102 9.0 9.0 0.00 0.00 0.00 43
20260504172511 68 104 9.0 11.0 0.00 0.00 0.00 43
20260504172015 68 102 9.0 11.0 0.00 0.00 0.00 42
20260504171511 68 104 9.0 9.0 0.00 0.00 0.00 42
20260504171010 68 103 9.0 9.0 0.00 0.00 0.00 41
20260504170511 68 99 7.0 9.0 0.00 0.00 0.00 40
20260504151010 72 215 2.0 2.0 0.00 0.00 0.00 34
20260504150510 72 171 2.0 4.0 0.00 0.00 0.00 34
20260504141010 73 251 2.0 4.0 0.00 0.00 0.00 35
20260504140511 72 216 2.0 2.0 0.00 0.00 0.00 35
20260504130511 72 109 4.0 7.0 0.00 0.00 0.00 35
20260504110510 70 182 4.0 7.0 0.00 0.00 0.00 38
20260504100511 66 267 0.0 2.0 0.00 0.00 0.00 43
20260504081510 59 312 4.0 7.0 0.00 0.00 0.00 50
20260504081011 59 312 4.0 7.0 0.00 0.00 0.00 51
20260504080518 59 312 7.0 7.0 0.00 0.00 0.00 51
20260504050511 55 103 9.0 11.0 0.00 0.00 0.00 50
20260504050012 55 89 7.0 7.0 0.00 0.00 0.00 51
20260504045510 55 78 7.0 7.0 0.00 0.00 0.00 51
20260504045010 55 75 11.0 13.0 0.00 0.00 0.00 51
20260504044510 54 83 11.0 13.0 0.00 0.00 0.00 51
20260504044011 55 75 13.0 13.0 0.00 0.00 0.00 51
20260504043511 55 72 11.0 13.0 0.00 0.00 0.00 51
20260504043010 55 78 9.0 9.0 0.00 0.00 0.00 50
20260504042510 55 75 9.0 11.0 0.00 0.00 0.00 50
20260504042013 55 77 7.0 9.0 0.00 0.00 0.00 50
20260504041511 55 75 11.0 11.0 0.00 0.00 0.00 50
20260504041010 55 74 9.0 11.0 0.00 0.00 0.00 50
20260504040510 55 99 9.0 11.0 0.00 0.00 0.00 50
20260504040011 55 87 7.0 11.0 0.00 0.00 0.00 50
20260504035509 55 77 11.0 16.0 0.00 0.00 0.00 50
20260504035010 55 86 16.0 16.0 0.00 0.00 0.00 50
20260504034510 55 74 18.0 20.0 0.00 0.00 0.00 50
20260504034010 55 85 16.0 20.0 0.00 0.00 0.00 50
20260504033511 55 74 13.0 16.0 0.00 0.00 0.00 50
20260504033010 55 77 16.0 18.0 0.00 0.00 0.00 50
20260504032510 55 80 16.0 20.0 0.00 0.00 0.00 49
20260504032012 55 91 18.0 20.0 0.00 0.00 0.00 48
20260504031510 57 81 16.0 18.0 0.00 0.00 0.00 48
20260504031010 57 83 13.0 18.0 0.00 0.00 0.00 48
20260504030511 57 99 13.0 16.0 0.00 0.00 0.00 48
20260504030010 57 94 9.0 9.0 0.00 0.00 0.00 48
20260504025510 57 77 11.0 13.0 0.00 0.00 0.00 48
20260504025011 57 69 11.0 13.0 0.00 0.00 0.00 48
20260504024510 57 59 13.0 13.0 0.00 0.00 0.00 47
20260504024010 57 57 11.0 13.0 0.00 0.00 0.00 47
20260504023510 57 54 11.0 13.0 0.00 0.00 0.00 47